Miscellaneous Local Product
Issued by NWS Hastings, NE

Home | Current Version | Previous Version | Graphics & Text | Print | Product List | Glossary On
Versions: 1 2 3 4 5 6 7 8 9 10 11 12 13 14 15 16 17 18 19 20 21 22 23 24 25 26 27 28 29 30 31 32 33 34 35 36 37 38 39 40 41 42 43 44 45 46 47 48 49 50
000
AXUS43 KGID 261302
MISGRI

GID CWA HOURLY WEATHER ROUNDUP
NATIONAL WEATHER SERVICE HASTINGS NE
800 AM CDT WED APR 26 2017

NOTE: "FAIR" INDICATES FEW OR NO CLOUDS BELOW 12,000 FEET WITH NO
SIGNIFICANT WEATHER AND/OR OBSTRUCTIONS TO VISIBILITY.

...SOUTH CENTRAL NEBRASKA...

CITY           SKY/WX    TMP DP  RH WIND       PRES   REMARKS
GRAND ISLAND   CLOUDY    34  30  85 NW18G28   29.74S WCI  23
HASTINGS       CLOUDY    35  28  75 NW25G31   29.74R WCI  23
KEARNEY        CLOUDY    36  25  64 NW21G28   29.76R WCI  24
ORD            CLOUDY    33  27  78 NW20G26   29.75S WCI  21
YORK           CLOUDY    36  32  87 NW22G33   29.70S WCI  24
AURORA         CLOUDY    35  31  84 NW24      29.72R WCI  23
LEXINGTON      CLOUDY    34  27  77 NW18G26   29.77F WCI  23
HOLDREGE       CLOUDY    34  27  75 N15G23    29.76R WCI  24
HEBRON         CLOUDY    37  30  76 NW15G25   29.73R WCI  28

...NEBRASKA PANHANDLE...

CITY           SKY/WX    TMP DP  RH WIND       PRES   REMARKS
CHADRON        CLOUDY    29  26  89 NE7       29.88R FOG     WCI  22
ALLIANCE       CLOUDY    29  25  85 NW15      29.82S WCI  18
SCOTTSBLUFF    SUNNY     32  26  78 N10       29.85S WCI  24
SIDNEY         MOSUNNY   31  26  82 N17       29.82R WCI  19

...WESTERN AND NORTH CENTRAL NEBRASKA...

CITY           SKY/WX    TMP DP  RH WIND       PRES   REMARKS
VALENTINE      CLOUDY    32  26  78 NW22      29.82S WCI  19
AINSWORTH      CLOUDY    31  29  89 NW18G31   29.80R WCI  20
ONEILL         CLOUDY    33  29  87 NW18G29   29.75F WCI  21
BROKEN BOW     CLOUDY    33  26  75 N25G32    29.76S WCI  20
IMPERIAL       CLOUDY    31  25  78 NW15      29.83S WCI  20
NORTH PLATTE   CLOUDY    33  26  75 N15       29.81S WCI  23
MCCOOK         CLOUDY    33  25  72 NW14      29.81R WCI  23

...EASTERN NEBRASKA...

CITY           SKY/WX    TMP DP  RH WIND       PRES   REMARKS
NORFOLK        CLOUDY    33  28  81 NW20G30   29.69S WCI  21
SO SIOUX CITY  CLOUDY    35  33  92 NW26G32   29.65R WCI  22
TEKAMAH        CLOUDY    36  32  85 NW24      29.67R WCI  24
COLUMBUS       CLOUDY    36  28  75 NW18G28   29.70F WCI  25
ALBION         CLOUDY    35  29  81 NW23G29   29.71S WCI  23
OMAHA EPPLEY   CLOUDY    37  32  82 NW18G26   29.66R WCI  27
OFFUTT AFB     CLOUDY    37  33  83 NW16G24   29.66R WCI  28
MILLARD        CLOUDY    39  34  82 NW14G23   29.68R WCI  30
LINCOLN        CLOUDY    38  30  73 N21G31    29.69S WCI  28
NEBRASKA CITY  CLOUDY    38  32  79 NW22G28   29.66R WCI  27
BEATRICE       CLOUDY    38  33  82 NW18      29.70R WCI  28
FALLS CITY     CLOUDY    39  35  86 NW10      29.68R WCI  32

...NORTHERN KANSAS...

CITY           SKY/WX    TMP DP  RH WIND       PRES   REMARKS
GOODLAND       FLURRIES  32  26  78 N21       29.80F WCI  20
HILL CITY      MOSUNNY   34  27  75 NW15G25   29.79S WCI  24
NORTON         CLOUDY    36  25  64 NW18G25   29.78R WCI  25
PHILLIPSBURG   MOSUNNY   37  28  70 NW18      29.78R WCI  27
SMITH CENTER   CLOUDY    36  28  75 NW16G26   29.77R WCI  26
HAYS           CLOUDY    38  28  67 N17G25    29.77S WCI  28
RUSSELL        CLOUDY    38  30  73 NW23      29.75S WCI  27
CONCORDIA      CLOUDY    38  32  79 NW16G28   29.73R WCI  29
SALINA         CLOUDY    42  33  70 N22       29.74R
TOPEKA         CLOUDY    42  38  85 NW15G24   29.65S



USA.gov is the U.S. government's official web portal to all federal, state and local government web resources and services.